This is the latest recevied weather packets stored in our database for station/object DC1NF-7. If no packets are shown the sender has not sent any weather packets the latest 10 day(s).
| Time | Temp. | Humidity | Pressure | Rain* | Wind** | Luminosity | Snow |
|---|---|---|---|---|---|---|---|
| 1777827925 | 23.33° C | 38% | 1012.2 hPa | 0 mm | - | 134 W/m² | - |
| 1777827323 | 23.33° C | 38% | 1012.3 hPa | 0 mm | - | 146 W/m² | - |
| 1777826716 | 23.33° C | 38% | 1012.3 hPa | 0 mm | - | 107 W/m² | - |
| 1777826173 | 23.33° C | 38% | 1012.3 hPa | 0 mm | - | 101 W/m² | - |
| 1777825569 | 23.33° C | 37% | 1012.4 hPa | 0 mm | - | 105 W/m² | - |
| 1777824966 | 23.89° C | 37% | 1012.5 hPa | 0 mm | - | 117 W/m² | - |
| 1777824366 | 23.89° C | 36% | 1012.5 hPa | 0 mm | - | 127 W/m² | - |
| 1777823760 | 23.89° C | 36% | 1012.4 hPa | 0 mm | - | 145 W/m² | - |
| 1777823160 | 24.44° C | 36% | 1012.5 hPa | 0 mm | - | 171 W/m² | - |
| 1777822561 | 24.44° C | 35% | 1012.4 hPa | 0 mm | - | 214 W/m² | - |
| 1777821949 | 24.44° C | 34% | 1012.5 hPa | 0 mm | - | 233 W/m² | - |
| 1777821349 | 24.44° C | 35% | 1012.5 hPa | 0 mm | - | 231 W/m² | - |
| 1777820741 | 25° C | 34% | 1012.5 hPa | 0 mm | - | 242 W/m² | - |
| 1777820138 | 25° C | 33% | 1012.7 hPa | 0 mm | - | 253 W/m² | - |
| 1777819535 | 25° C | 32% | 1012.6 hPa | 0 mm | - | 322 W/m² | - |
| 1777818931 | 26.11° C | 31% | 1012.7 hPa | 0 mm | - | 318 W/m² | - |
| 1777818327 | 26.11° C | 30% | 1012.7 hPa | 0 mm | - | 377 W/m² | - |
| 1777817725 | 26.67° C | 30% | 1012.8 hPa | 0 mm | - | 427 W/m² | - |
| 1777817118 | 27.22° C | 30% | 1012.8 hPa | 0 mm | - | 473 W/m² | - |
| 1777816574 | 26.67° C | 29% | 1012.9 hPa | 0 mm | - | 508 W/m² | - |
| 1777815972 | 26.67° C | 30% | 1013.1 hPa | 0 mm | - | 576 W/m² | - |
| 1777815366 | 27.22° C | 29% | 1013 hPa | 0 mm | - | 506 W/m² | - |
| 1777814766 | 27.22° C | 28% | 1013.3 hPa | 0 mm | - | 716 W/m² | - |
| 1777814165 | 27.22° C | 29% | 1013.5 hPa | 0 mm | - | 547 W/m² | - |
| 1777813559 | 26.67° C | 30% | 1013.5 hPa | 0 mm | - | 448 W/m² | - |
* Rain latest hour (hover to see other rain measurements)
** Current wind speed in m/s (hover to see current wind gust speed)